Weather Roundup
Issued by NWS

Home | Current Version | Previous Version | Graphics & Text | Print | Product List | Glossary Off
Versions: 1 2 3 4 5 6 7 8 9 10 11 12 13 14 15 16 17 18 19 20 21 22 23 24 25 26 27 28 29 30 31 32 33 34 35 36 37 38 39 40 41 42 43 44 45 46 47 48 49 50

231
NZUS93 KARX 300810
HRRWXR

CURRENT HOURLY OBSERVATIONS ACROSS
MUCH OF THE UPPER MISSISSIPPI VALLEY
NATIONAL WEATHER SERVICE LA CROSSE WI
300 AM CDT SUN APR 30 2017


...SOUTHEAST MINNESOTA...


CITY           SKY/WX    TMP DP  RH WIND       PRES   REMARKS
ROCHESTER      LGT RAIN  41  30  65 NE16      30.06F
ROCHESTER/MAYO CLOUDY    44  29  55 NE9G18    30.08S
WINONA         CLOUDY    46  28  49 E13G18    30.09F
AUSTIN         LGT RAIN  41  30  65 NE13      30.03F
ALBERT LEA     DRIZZLE   43  30  61 NE16G25   30.03F
DODGE CENTER   DRIZZLE   43  30  61 E15       30.07F
PRESTON        CLOUDY    41  28  59 NE12      30.04F
OWATONNA       CLOUDY    45  30  57 NE9G16    30.07F
FARIBAULT      CLOUDY    45  30  57 NE9G16    30.09F
$$

...ELSEWHERE IN MINNESOTA...


CITY           SKY/WX    TMP DP  RH WIND       PRES   REMARKS
MINNEAPOLIS    CLOUDY    46  25  43 NE15      30.14S
INTNL FALLS    CLOUDY    34  21  59 CALM      30.24F
DULUTH         CLOUDY    37  14  38 E12       30.21F WCI  29
RED WING       CLOUDY    46  25  42 NE9G16    30.11F
REDWOOD FALLS  CLOUDY    45  26  47 E7        30.09F
MANKATO        CLOUDY    46  30  53 NE14      30.07F
WORTHINGTON    CLOUDY    43  27  53 NE15      30.04F
FAIRMONT       CLOUDY    45  31  58 NE15      30.04F
$$

...SOUTHWEST WISCONSIN...


CITY           SKY/WX    TMP DP  RH WIND       PRES   REMARKS
LA CROSSE      CLOUDY    46  28  49 NE9       30.07F
PRAIRIE DU CHI CLOUDY    43  35  73 NE8       30.00F
BOSCOBEL       CLOUDY    42  36  79 NE13G20   30.02F
LONE ROCK      CLOUDY    40  36  86 NE12      30.02F WCI  33
PLATTEVILLE    CLOUDY    40  40  98 NE16      29.97F WCI  32
FORT MC COY    CLOUDY    43  30  59 E15       30.09F
CAMP DOUGLAS   CLOUDY    42  30  62 NE12G17   30.07F
MAUSTON-NEW LI CLOUDY    42  32  67 E7        30.07F
VIROQUA        CLOUDY    40  31  70 NE18G29   30.04F WCI  31
WIS DELLS      CLOUDY    37  35  93 NE14G21   30.05F WCI  28
$$

...ELSEWHERE IN WISCONSIN...


CITY           SKY/WX    TMP DP  RH WIND       PRES   REMARKS
MILWAUKEE      CLOUDY    41  40  96 NE18G25   30.03F
MADISON        CLOUDY    39  36  89 NE16      30.02F WCI  30
GREEN BAY      CLOUDY    41  36  82 NE16      30.17F
EAU CLAIRE     CLOUDY    44  26  49 NE9       30.13F
BLACK RVR FLS  CLOUDY    45  22  40 NE12      30.11F
MEDFORD        MOCLDY    38  22  50 E14       30.15S WCI  30
WAUSAU         CLOUDY    39  22  50 E8        30.14F WCI  33
WIS RAPIDS     CLOUDY    42  26  53 E16G22    30.13F
MARSHFIELD     CLOUDY    41  20  43 E13       30.11F
RICE LAKE      CLOUDY    41  22  47 NE10      30.18R
$$

...NORTHEAST IOWA...


CITY           SKY/WX    TMP DP  RH WIND       PRES   REMARKS
WATERLOO       CLOUDY    40  35  83 NE18G26   29.94F WCI  31
DUBUQUE        CLOUDY    39  38  96 NE18G26   29.93F WCI  30
DECORAH        CLOUDY    43  30  61 NE12G22   29.99F
MASON CITY     CLOUDY    40  33  76 NE17G29   30.00F WCI  31
CHARLES CITY   CLOUDY    41  34  75 NE18G25   29.98F
OELWEIN        CLOUDY    41  37  87 NE18G28   29.94F
$$

...ELSEWHERE IN IOWA...


CITY           SKY/WX    TMP DP  RH WIND       PRES   REMARKS
DES MOINES     DRIZZLE   41  38  89 NE14      29.91R
IOWA CITY      CLOUDY    43  39  86 NE14G29   29.89F
FORT DODGE     CLOUDY    37  34  87 NE14G20   29.98S WCI  29
MARSHALLTOWN   CLOUDY    39  38  96 NE21      29.91F WCI  29
CEDAR RAPIDS   CLOUDY    40  40 100 NE21G31   29.87F WCI  30
$$

...NORTHERN ILLINOIS...


CITY           SKY/WX    TMP DP  RH WIND       PRES   REMARKS
CHICAGO-OHARE  DRIZZLE   43  41  93 NE16      29.94F
CHICAGO-MIDWAY LGT RAIN  44  44 100 NE14G23   29.93F FOG
MOLINE         CLOUDY    45  41  86 NE16      29.87F
ROCKFORD       CLOUDY    44  40  85 NE15G25   29.95F
PEORIA         LGT RAIN  46  46 100 NE10      29.85F
$$

NOTE: "FAIR" INDICATES FEW OR NO CLOUDS BELOW 12,000 FEET WITH NO
SIGNIFICANT WEATHER AND/OR OBSTRUCTIONS TO VISIBILITY. WIND
SPEEDS ARE IN MILES-PER-HOUR.




USA.gov is the U.S. government's official web portal to all federal, state and local government web resources and services.